Date String (YYYY-MM-DD hh:mm:ss) UTC,Instrument flags,Ambient pressure (hPa),Sample flow (lpm),Bypass flow (lpm),Sample temperature (°C),Ambient temperature (°C),ASC tube jacket temperature (°C),LED temperature (°C),Box temperature (°C),Sample RH (%),Span deviation,Mass concentration (μg/m³),Mass concentration (μg/m³),Mass concentration (μg/m³)
DateTimeUTC,F1_M11,P_M11,Q1_M11,Q2_M11,T1_M11,T2_M11,T3_M11,T4_M11,T5_M11,U1_M11,ZSPAN_M11,X2_M11,X0_M11,X1_M11
2022-08-26 17:00:00,,0828.7,5.01,0.00,30.1,27.1,00.0,38.8,31.8,31.6,0000.0,0005.04,0016.18,0004.29
2022-08-26 17:01:00,,0828.5,5.00,0.00,30.1,27.4,00.0,38.8,31.7,31.1,0000.0,0005.05,0015.75,0004.30
2022-08-26 17:02:00,,0828.5,5.00,0.00,30.0,27.8,00.0,38.7,31.7,31.5,0000.0,0005.06,0015.58,0004.30
2022-08-26 17:03:00,,0828.5,5.00,0.00,30.0,28.1,00.0,38.7,31.8,31.2,0000.0,0005.07,0015.55,0004.32
2022-08-26 17:04:00,,0828.5,4.99,0.00,30.0,28.3,00.0,38.7,31.8,31.0,0000.0,0005.05,0015.11,0004.32
2022-08-26 17:05:00,,0828.5,5.01,0.00,30.0,28.5,00.0,38.7,31.8,30.9,0000.0,0005.05,0014.69,0004.33
2022-08-26 17:06:00,,0828.5,4.99,0.00,30.0,28.7,00.0,38.7,31.9,30.9,0000.0,0005.06,0013.43,0004.33
2022-08-26 17:07:00,,0828.5,5.00,0.00,30.1,28.8,00.0,38.8,31.9,31.1,0000.0,0005.05,0012.34,0004.34
2022-08-26 17:08:00,,0828.5,4.99,0.00,30.1,28.9,00.0,38.8,32.0,31.2,0000.0,0005.04,0012.40,0004.35
2022-08-26 17:09:00,,0828.5,5.00,0.00,30.1,29.0,00.0,38.8,32.0,31.7,0000.0,0005.05,0012.54,0004.35
2022-08-26 17:10:00,,0828.5,5.00,0.00,30.1,29.1,00.0,38.8,32.0,31.9,0000.0,0005.02,0012.52,0004.35
2022-08-26 17:11:00,,0828.5,5.00,0.00,30.2,29.2,00.0,38.8,32.1,31.0,0000.0,0005.01,0012.40,0004.35
2022-08-26 17:12:00,,0828.5,5.01,0.00,30.2,29.0,00.0,38.8,32.1,30.8,0000.0,0005.03,0013.12,0004.36
2022-08-26 17:13:00,,0828.4,4.99,0.00,30.2,27.8,00.0,38.8,32.0,30.6,0000.0,0005.06,0012.56,0004.37
2022-08-26 17:14:00,,0828.4,5.00,0.00,30.2,27.0,00.0,38.8,31.9,30.6,0000.0,0005.08,0013.07,0004.38
2022-08-26 17:15:00,,0828.5,4.99,0.00,30.1,26.9,00.0,38.8,31.8,29.0,0000.0,0005.10,0013.42,0004.39
2022-08-26 17:16:00,,0828.5,5.01,0.00,30.0,27.2,00.0,38.7,31.7,29.0,0000.0,0005.07,0013.32,0004.40
2022-08-26 17:17:00,,0828.4,5.00,0.00,30.0,27.5,00.0,38.7,31.7,28.9,0000.0,0005.05,0012.80,0004.39
2022-08-26 17:18:00,,0828.5,5.01,0.00,30.0,27.9,00.0,38.7,31.7,28.6,0000.0,0005.06,0012.69,0004.39
2022-08-26 17:19:00,,0828.4,4.98,0.00,30.0,28.1,00.0,38.7,31.7,29.1,0000.0,0005.05,0011.91,0004.39
2022-08-26 17:20:00,,0828.5,5.00,0.00,30.0,28.3,00.0,38.7,31.8,29.5,0000.0,0005.02,0011.18,0004.39
2022-08-26 17:21:00,,0828.4,4.99,0.00,30.0,28.5,00.0,38.7,31.8,29.6,0000.0,0004.97,0010.39,0004.40
2022-08-26 17:22:00,,0828.4,5.00,0.00,30.0,28.7,00.0,38.7,31.9,29.8,0000.0,0004.97,0010.40,0004.41
2022-08-26 17:23:00,,0828.3,4.99,0.00,30.0,28.8,00.0,38.7,31.9,30.8,0000.0,0004.94,0009.69,0004.41
2022-08-26 17:24:00,,0828.4,5.01,0.00,30.0,29.0,00.0,38.7,31.9,31.0,0000.0,0004.92,0009.31,0004.42
2022-08-26 17:25:00,,0828.4,4.99,0.00,30.1,29.0,00.0,38.8,32.0,30.9,0000.0,0004.95,0009.44,0004.42
2022-08-26 17:26:00,,0828.4,5.00,0.00,30.1,29.1,00.0,38.8,32.0,30.8,0000.0,0004.96,0009.20,0004.43
2022-08-26 17:27:00,,0828.4,5.00,0.00,30.1,28.4,00.0,38.8,32.0,31.2,0000.0,0005.00,0009.24,0004.44
2022-08-26 17:28:00,,0828.3,5.01,0.00,30.1,27.2,00.0,38.7,31.9,29.4,0000.0,0005.01,0009.14,0004.46
2022-08-26 17:29:00,,0828.3,5.00,0.00,30.0,26.9,00.0,38.7,31.8,28.7,0000.0,0004.98,0009.00,0004.46
2022-08-26 17:30:00,,0828.3,5.01,0.00,30.0,27.1,00.0,38.7,31.7,28.6,0000.0,0005.02,0009.14,0004.47
2022-08-26 17:31:00,,0828.3,4.99,0.00,29.9,27.4,00.0,38.6,31.6,28.5,0000.0,0005.03,0009.84,0004.48
2022-08-26 17:32:00,,0828.2,5.00,0.00,29.9,27.8,00.0,38.6,31.6,29.4,0000.0,0005.07,0010.00,0004.48
2022-08-26 17:33:00,,0828.2,5.01,0.00,29.9,28.0,00.0,38.6,31.7,28.0,0000.0,0005.07,0010.42,0004.48
2022-08-26 17:34:00,,0828.4,5.00,0.00,29.9,28.3,00.0,38.6,31.7,27.9,0000.0,0005.05,0010.38,0004.46
2022-08-26 17:35:00,,0828.3,4.99,0.00,29.9,28.5,00.0,38.6,31.7,27.9,0000.0,0005.03,0010.38,0004.44
2022-08-26 17:36:00,,0828.3,5.01,0.00,29.9,28.6,00.0,38.6,31.8,27.9,0000.0,0004.96,0009.98,0004.42
2022-08-26 17:37:00,,0828.4,5.00,0.00,30.0,28.8,00.0,38.7,31.9,27.5,0000.0,0004.91,0009.49,0004.41
2022-08-26 17:38:00,,0828.3,5.00,0.00,30.0,28.9,00.0,38.7,31.9,27.4,0000.0,0004.90,0009.50,0004.37
2022-08-26 17:39:00,,0828.3,5.00,0.00,30.0,29.0,00.0,38.7,32.0,26.3,0000.0,0004.86,0009.46,0004.35
2022-08-26 17:40:00,,0828.2,5.00,0.00,30.1,29.0,00.0,38.7,32.0,25.8,0000.0,0004.86,0009.57,0004.33
2022-08-26 17:41:00,,0828.3,5.00,0.00,30.1,28.1,00.0,38.7,32.0,26.4,0000.0,0004.84,0009.51,0004.31
2022-08-26 17:42:00,,0828.2,5.01,0.00,30.0,27.1,00.0,38.7,31.8,27.0,0000.0,0004.81,0008.89,0004.30
2022-08-26 17:43:00,,0828.2,5.01,0.00,30.0,27.0,00.0,38.7,31.8,26.7,0000.0,0004.82,0009.02,0004.29
2022-08-26 17:44:00,,0828.2,4.99,0.00,29.9,27.3,00.0,38.6,31.7,26.9,0000.0,0004.82,0008.94,0004.27
2022-08-26 17:45:00,,0828.2,5.00,0.00,29.9,27.6,00.0,38.6,31.6,27.2,0000.0,0004.87,0009.03,0004.27
2022-08-26 17:46:00,,0828.2,5.00,0.00,29.9,27.8,00.0,38.6,31.7,28.3,0000.0,0004.85,0009.13,0004.28
2022-08-26 17:47:00,,0828.2,5.01,0.00,29.9,28.1,00.0,38.6,31.7,27.9,0000.0,0004.85,0009.19,0004.28
2022-08-26 17:48:00,,0828.2,4.99,0.00,29.9,28.3,00.0,38.6,31.8,27.8,0000.0,0004.85,0009.22,0004.27
2022-08-26 17:49:00,,0828.1,5.01,0.00,29.9,28.5,00.0,38.6,31.8,27.8,0000.0,0004.85,0009.22,0004.29
2022-08-26 17:50:00,,0828.1,4.99,0.00,29.9,28.6,00.0,38.6,31.8,27.7,0000.0,0004.88,0009.27,0004.31
2022-08-26 17:51:00,,0828.1,5.01,0.00,30.0,28.7,00.0,38.6,31.9,26.5,0000.0,0004.89,0009.23,0004.33
2022-08-26 17:52:00,,0828.1,4.99,0.00,30.0,28.8,00.0,38.6,31.9,27.6,0000.0,0004.85,0009.09,0004.32
2022-08-26 17:53:00,,0828.2,5.00,0.00,30.0,28.9,00.0,38.6,31.9,27.5,0000.0,0004.87,0009.09,0004.33
2022-08-26 17:54:00,,0828.1,5.00,0.00,30.0,28.9,00.0,38.7,32.0,26.6,0000.0,0004.87,0008.89,0004.32
2022-08-26 17:55:00,,0828.1,5.00,0.00,30.1,29.0,00.0,38.7,32.0,27.3,0000.0,0004.89,0008.69,0004.33
2022-08-26 17:56:00,,0828.1,5.00,0.00,30.1,29.1,00.0,38.7,32.0,28.0,0000.0,0004.88,0008.71,0004.35
2022-08-26 17:57:00,,0828.1,5.00,0.00,30.2,29.2,00.0,38.7,32.2,27.1,0000.0,0004.92,0009.15,0004.36
2022-08-26 17:58:00,,0828.1,5.00,0.00,30.2,29.4,00.0,38.8,32.3,27.4,0000.0,0004.96,0009.25,0004.37
2022-08-26 17:59:00,,0828.1,5.00,0.00,30.3,29.5,00.0,38.8,32.4,27.2,0000.0,0004.99,0009.33,0004.39
